This is the latest recevied weather packets stored in our database for station/object DO7ZT-13. If no packets are shown the sender has not sent any weather packets the latest 10 day(s).
| Time | Temp. | Humidity | Pressure | Rain* | Wind** | Luminosity | Snow |
|---|---|---|---|---|---|---|---|
| 1777941609 | 12.22° C | 82% | 1010.8 hPa | 0 mm | 0 m/s | - | - |
| 1777941321 | 12.22° C | 81% | 1010.8 hPa | 0 mm | 0 m/s | - | - |
| 1777941008 | 12.78° C | 82% | 1010.7 hPa | 0 mm | 0 m/s | - | - |
| 1777940721 | 12.78° C | 82% | 1010.7 hPa | 0 mm | 0 m/s | - | - |
| 1777940408 | 12.78° C | 77% | 1010.7 hPa | 0 mm | 0 m/s | - | - |
| 1777940121 | 12.78° C | 78% | 1011.1 hPa | 0 mm | 0 m/s | - | - |
| 1777939808 | 12.78° C | 78% | 1011.1 hPa | 0 mm | 0 m/s | - | - |
| 1777939520 | 12.22° C | 77% | 1011.1 hPa | 0 mm | 0 m/s | - | - |
| 1777938921 | 12.22° C | 83% | 1011.3 hPa | 0 mm | 0 m/s | - | - |
| 1777938609 | 12.22° C | 83% | 1011.3 hPa | 0 mm | 0 m/s | - | - |
| 1777938321 | 12.22° C | 80% | 1011.4 hPa | 0 mm | 0 m/s | - | - |
| 1777938008 | 12.22° C | 79% | 1011.4 hPa | 0 mm | 0 m/s | - | - |
| 1777937721 | 12.22° C | 80% | 1011.4 hPa | 0 mm | 0 m/s | - | - |
| 1777937408 | 11.11° C | 81% | 1011.3 hPa | 0 mm | 0 m/s | - | - |
| 1777937121 | 11.11° C | 83% | 1011.3 hPa | 0 mm | 0 m/s | - | - |
| 1777936808 | 11.11° C | 83% | 1011.3 hPa | 0 mm | 0 m/s | - | - |
| 1777936521 | 11.11° C | 82% | 1011.4 hPa | 0 mm | 0 m/s | - | - |
| 1777936209 | 11.11° C | 81% | 1011.4 hPa | 0 mm | 0 m/s | - | - |
| 1777935921 | 11.11° C | 81% | 1011.4 hPa | 0 mm | 0.45 m/s, 134° | - | - |
| 1777935608 | 12.22° C | 75% | 1011.5 hPa | 0 mm | 0.45 m/s, 134° | - | - |
| 1777935321 | 12.22° C | 78% | 1011.5 hPa | 0 mm | 0 m/s | - | - |
| 1777935008 | 12.22° C | 80% | 1011.5 hPa | 0 mm | 0 m/s | - | - |
| 1777934734 | 11.11° C | 79% | 1011.7 hPa | 0 mm | 0.45 m/s, 134° | - | - |
| 1777934421 | 11.11° C | 80% | 1011.7 hPa | 0 mm | 0.45 m/s, 134° | - | - |
| 1777934109 | 12.22° C | 79% | 1011.7 hPa | 0 mm | 0.45 m/s, 134° | - | - |
* Rain latest hour (hover to see other rain measurements)
** Current wind speed in m/s (hover to see current wind gust speed)